Theta_e
296 296 295 295 295 296 297 298 302 312 312 313 313 311 308 306 300 297 298 301 301 300 306 303 299 308 311 312 313 314 314 309 306 313 314 315 315 310 313 315 317 317 316 315 315 314 314 315 316 316 316 317 319 321 321 321 322 321 321 322 323 324 324 323 323 324 323 323 323 323 322 322 323 322
296 295 296 295 295 296 296 298 301 310 312 312 313 311 310 309 304 302 299 300 303 301 303 305 300 297 306 310 311 312 311 305 308 314 315 315 316 308 310 313 315 315 315 315 315 314 314 314 313 314 315 317 318 320 320 320 320 320 320 323 323 324 323 323 323 322 323 323 323 323 322 322 322 322
295 295 295 296 295 295 296 297 301 308 310 313 312 312 312 310 308 306 304 299 298 304 302 302 300 302 303 306 308 311 310 305 309 314 314 315 309 306 309 310 313 314 314 315 314 314 313 313 312 312 312 316 317 319 319 318 318 319 320 322 323 323 322 322 321 322 322 322 322 322 322 321 321 320
295 295 295 295 295 295 295 296 300 308 308 311 312 312 311 311 310 309 307 303 300 303 305 303 301 303 301 302 306 305 308 305 303 313 314 313 304 310 314 308 310 312 313 313 313 312 312 312 312 312 312 315 316 317 316 316 317 318 318 320 322 322 320 319 319 320 320 319 319 321 320 319 319 319
295 295 295 295 295 295 295 295 298 306 308 309 311 312 312 310 310 309 307 304 300 301 301 302 302 302 301 300 303 303 303 303 306 308 312 311 308 313 315 312 306 309 311 311 312 312 312 311 312 311 311 312 314 315 315 316 315 316 319 320 320 321 321 320 319 316 316 318 318 318 318 318 318 317
294 295 295 295 296 296 295 295 296 304 307 308 309 310 311 310 310 310 307 303 300 296 296 299 301 301 304 301 299 303 302 303 299 308 309 309 308 312 312 312 311 307 309 310 311 311 311 311 311 311 311 312 313 314 315 314 313 314 317 316 315 315 317 318 317 316 314 317 317 317 317 317 318 317
292 293 294 296 297 297 296 296 297 302 306 308 308 309 310 309 309 308 307 303 298 297 296 299 299 299 302 301 298 301 304 303 303 306 306 306 306 307 307 309 308 306 308 310 310 310 311 311 311 310 310 311 311 312 313 313 312 313 313 314 314 313 313 313 314 314 314 316 317 317 316 317 318 317
291 291 292 294 296 297 297 296 297 302 306 308 308 308 308 308 307 306 305 304 301 299 296 296 299 301 301 298 298 301 302 302 299 304 302 301 304 302 303 305 303 305 308 308 307 308 310 310 310 310 310 310 311 311 311 311 312 311 310 310 311 311 311 311 312 312 313 314 316 316 316 317 317 316
290 291 291 293 295 297 297 297 297 301 305 306 307 307 307 307 306 305 304 303 303 300 297 297 299 301 301 298 297 298 299 298 296 294 296 299 302 299 299 302 303 302 305 306 305 306 308 309 309 309 310 310 310 310 311 311 310 309 309 308 309 310 309 309 310 310 310 311 313 314 316 316 315 315
290 290 291 293 296 297 297 297 298 302 304 306 306 306 306 304 303 302 301 302 301 301 299 298 296 299 297 294 295 297 300 299 297 294 292 293 294 295 294 296 299 302 305 305 305 303 305 305 308 309 309 310 310 310 310 309 308 306 306 306 307 308 309 308 308 308 309 309 309 311 314 315 314 314
291 291 292 293 294 296 297 298 298 301 303 305 305 306 305 303 302 300 301 301 300 299 297 298 299 298 298 298 295 296 299 300 300 298 294 294 293 294 297 296 294 298 300 300 302 303 303 303 306 306 307 309 309 308 309 308 307 304 304 305 306 307 307 307 307 307 307 307 308 308 309 311 313 313
290 290 290 291 293 295 297 298 299 302 305 305 304 307 305 303 302 300 299 299 298 297 296 297 297 298 297 295 296 296 297 297 297 299 298 297 295 294 295 296 296 293 298 298 298 300 302 303 305 305 306 306 308 307 306 305 304 302 304 305 306 306 306 307 306 306 306 305 306 307 307 308 309 312
289 289 290 290 291 292 291 291 292 296 302 306 302 304 304 302 301 299 299 299 298 297 296 296 297 297 296 296 294 294 296 297 297 299 299 297 296 295 294 293 295 297 297 296 297 297 299 300 302 304 304 305 305 304 303 303 300 301 304 305 306 306 306 306 306 305 305 305 305 306 307 306 306 306
288 288 289 289 289 289 289 290 291 293 296 301 305 305 303 300 300 298 297 298 297 297 296 295 295 295 295 295 295 296 298 299 298 298 298 296 293 294 293 292 290 291 297 296 295 294 295 299 298 299 303 303 302 305 305 305 303 302 305 305 305 305 305 305 305 305 304 304 305 305 305 304 305 305
287 287 288 289 289 289 289 290 292 294 295 299 301 301 301 301 301 298 297 297 297 296 296 296 295 296 295 295 297 297 298 298 298 298 298 297 295 295 294 293 291 292 296 296 295 294 292 297 298 297 299 299 298 301 303 303 301 302 305 305 305 305 305 305 304 304 304 304 304 304 304 304 304 304
287 287 287 288 289 290 291 291 293 294 294 297 300 300 299 299 299 300 299 297 297 296 296 295 295 295 295 296 297 298 297 297 297 298 297 296 295 295 296 296 293 294 295 296 295 294 291 291 298 296 296 296 299 300 302 302 302 304 304 304 304 304 304 304 304 304 304 304 304 303 303 303 303 303
287 287 286 287 289 290 289 289 292 295 296 296 298 298 298 298 299 299 300 299 298 298 297 295 295 296 297 295 296 298 298 297 296 295 296 296 296 297 296 296 295 292 295 297 294 294 292 291 294 296 295 295 296 298 301 302 302 303 304 304 304 303 303 303 303 303 303 303 303 303 303 303 302 302
287 287 287 286 287 288 289 290 292 295 298 299 300 300 300 300 298 298 298 297 297 297 298 297 295 298 298 297 298 297 297 296 295 295 295 295 295 295 297 296 295 295 297 297 294 292 291 290 294 295 293 290 292 293 298 301 302 303 303 303 303 303 303 303 302 303 303 303 303 303 303 302 302 301
287 288 288 287 287 288 288 289 291 293 297 298 297 298 298 300 300 301 301 301 301 300 302 300 300 300 300 300 299 298 298 297 298 297 296 295 296 293 290 290 291 293 296 296 295 292 292 289 293 294 289 288 289 289 296 300 301 303 303 302 302 302 302 302 302 302 302 302 302 303 302 302 301 301
287 288 288 287 287 288 288 289 291 292 295 296 295 295 297 299 301 302 300 299 300 301 303 302 302 302 301 300 298 297 297 297 297 295 293 292 291 292 293 291 290 292 294 292 293 291 290 290 294 290 287 288 289 288 290 298 300 302 302 302 302 302 302 302 301 302 302 302 302 302 302 301 301 301
286 288 288 288 288 288 288 289 291 293 294 295 294 295 296 297 298 300 301 298 298 299 299 300 300 300 300 300 299 298 298 296 296 295 293 292 294 294 292 290 290 291 293 292 292 292 290 289 292 288 287 288 288 288 289 292 299 300 301 301 302 301 301 301 301 301 302 302 302 302 302 301 300 299
286 287 288 288 288 288 288 290 292 293 293 295 294 295 295 295 296 298 300 299 299 298 298 298 298 298 299 298 298 298 298 297 295 296 295 294 295 294 293 290 291 292 292 293 291 291 290 290 290 287 286 287 286 288 288 290 294 298 299 300 301 301 301 301 301 301 301 301 302 302 301 301 300 299
286 287 287 288 288 288 289 291 292 293 294 295 295 296 296 295 295 298 298 297 295 295 295 295 296 296 296 297 297 295 297 296 295 298 297 295 296 295 293 291 289 289 290 292 290 291 288 289 289 288 286 285 284 286 288 289 291 294 296 298 299 299 299 300 300 300 300 301 301 301 301 300 299 297
285 286 286 287 289 290 290 291 291 292 294 295 295 296 296 296 296 298 296 295 296 295 294 294 294 294 295 294 295 295 296 295 294 297 297 296 298 296 293 291 291 291 291 292 290 291 288 291 288 290 292 289 286 286 286 287 289 292 294 295 294 297 298 298 299 300 300 300 300 301 301 300 299 297
284 285 286 287 289 290 291 291 291 292 294 295 295 297 297 297 297 296 295 293 294 294 292 292 292 293 293 294 294 294 295 294 295 295 295 297 299 298 294 292 291 293 291 292 292 290 287 290 289 289 290 287 284 285 285 287 288 289 290 292 293 295 296 296 295 297 298 299 300 300 300 300 300 298
284 285 286 286 288 290 291 291 292 293 294 296 294 297 298 298 297 295 294 294 294 294 293 293 292 293 293 293 294 294 294 294 293 295 295 295 297 299 297 295 293 291 289 292 294 292 289 288 289 289 290 284 278 288 284 285 287 288 289 290 292 293 293 293 292 292 294 295 297 298 299 300 300 299
285 286 287 287 289 290 291 292 293 294 295 295 296 297 298 297 296 295 294 293 294 293 293 292 292 292 293 293 293 293 293 294 294 295 294 294 295 295 295 296 297 295 292 292 292 292 291 290 289 290 289 288 283 283 286 285 285 287 288 289 290 291 292 292 291 291 292 293 293 297 299 299 299 299
286 286 287 288 290 291 292 293 294 294 294 293 296 297 297 296 294 294 293 293 293 292 291 292 292 292 293 293 293 293 293 293 293 294 293 293 293 293 293 293 293 294 292 291 292 293 291 290 289 290 291 289 286 284 285 287 286 286 286 288 289 289 290 290 290 290 291 292 292 293 294 294 296 297
287 288 289 290 290 291 292 293 294 294 294 295 296 296 295 294 294 294 294 294 293 292 291 292 292 292 292 293 294 294 294 293 293 292 291 291 292 292 291 291 291 289 289 290 292 292 292 290 289 289 290 290 289 288 287 286 286 285 287 286 285 287 288 290 291 290 290 291 292 291 292 293 293 293
289 289 290 290 290 291 291 291 292 292 293 294 295 294 294 294 295 294 294 293 292 292 292 292 292 293 293 293 293 292 293 292 292 292 291 290 290 289 289 288 287 284 287 289 291 292 291 291 289 289 290 290 290 288 287 286 284 285 286 286 287 286 287 289 289 290 289 289 290 291 292 292 292 292
287 288 288 288 289 290 291 291 292 293 293 293 294 295 295 294 294 294 294 294 293 293 293 292 293 293 292 292 290 291 291 291 292 292 291 290 290 289 289 289 286 282 284 287 289 290 290 290 288 289 288 288 289 288 287 287 285 284 285 287 287 284 286 288 289 289 289 289 290 289 290 290 290 290
287 287 288 289 288 289 290 291 292 293 293 293 293 294 294 294 293 293 293 293 295 295 295 294 293 291 290 290 290 291 291 291 291 291 290 290 289 289 288 288 287 285 281 284 287 288 288 289 288 288 289 289 288 287 286 286 286 284 284 286 287 288 286 286 287 288 288 288 288 288 288 288 289 290
287 287 287 287 288 288 288 289 291 292 292 293 293 293 294 294 293 293 293 292 293 294 293 292 291 290 290 290 290 290 290 290 290 291 290 290 290 288 289 288 288 284 281 281 283 285 286 286 282 286 287 288 288 288 286 284 285 284 284 284 285 286 285 286 287 287 287 287 286 287 286 288 288 289
287 287 287 287 288 288 289 290 290 291 292 292 292 293 292 293 293 292 292 293 293 293 292 292 291 290 290 290 289 289 290 290 290 290 290 289 289 288 288 288 288 286 284 282 282 284 285 285 280 279 280 282 279 284 287 286 285 284 284 284 284 284 285 285 286 287 287 286 286 285 285 286 287 288
285 286 287 287 288 289 290 290 291 291 291 291 292 292 293 293 292 292 293 293 293 292 292 292 291 290 290 290 289 289 289 289 289 289 289 289 288 288 288 288 287 286 284 283 282 283 284 284 281 279 277 278 280 284 284 285 285 284 283 283 284 284 284 284 285 286 286 286 286 285 284 285 286 287
285 287 288 288 288 289 289 290 291 291 292 292 293 293 292 292 293 293 292 293 293 293 292 292 291 290 290 290 289 289 289 289 288 288 288 288 288 288 288 288 288 287 285 284 283 283 284 284 283 281 280 280 280 280 283 286 286 287 283 282 283 283 284 283 284 285 285 285 285 285 283 283 284 286
285 287 288 288 289 289 290 291 292 292 292 292 293 293 293 292 293 293 294 292 293 292 293 292 291 291 290 290 289 289 289 288 288 288 287 288 288 287 287 287 287 287 286 285 284 283 284 283 283 283 281 280 279 279 282 282 284 286 286 283 281 283 283 282 282 283 284 285 284 284 284 284 284 285
286 287 287 289 289 290 290 291 292 291 292 292 292 293 293 293 294 293 293 292 292 292 292 292 292 291 291 290 289 289 289 289 289 288 287 287 287 286 287 287 286 286 286 285 284 283 284 284 283 283 283 281 280 280 280 273 278 283 286 286 282 282 283 282 281 281 282 284 284 285 285 283 284 285
269 276 284 288 289 290 290 291 292 292 292 292 292 292 292 292 293 292 292 292 292 292 293 293 292 291 290 290 290 289 289 288 288 288 287 287 287 287 287 287 286 286 286 283 282 283 284 284 284 284 284 283 282 282 282 280 279 281 285 286 284 282 282 282 282 282 282 282 283 284 283 285 279 280
265 266 266 268 274 285 291 291 292 292 292 292 292 293 292 291 291 292 292 292 292 292 293 292 292 291 291 291 290 290 289 289 289 288 287 287 287 287 287 287 287 286 286 284 281 282 282 283 285 285 285 286 282 282 283 282 277 279 283 285 286 285 284 283 282 282 281 282 282 281 281 282 281 279
263 263 264 265 267 268 273 283 291 291 292 292 291 291 292 292 292 292 292 292 291 292 292 293 292 291 291 291 290 290 289 289 289 289 288 288 287 287 287 286 286 286 286 285 283 282 282 284 286 287 286 283 281 285 284 282 281 281 281 284 285 286 286 285 285 284 282 283 282 281 281 281 281 280
261 263 264 265 265 266 267 268 272 282 290 291 291 291 291 291 292 291 291 291 291 291 292 292 292 291 291 291 291 290 290 289 289 289 288 288 287 287 287 287 287 287 286 286 285 284 285 285 285 286 286 285 284 284 284 284 285 285 281 282 284 285 287 286 286 286 286 284 282 281 281 279 279 280
261 263 264 265 265 266 266 267 268 269 273 283 290 290 291 291 291 291 291 291 291 291 292 292 292 292 292 291 291 291 290 289 289 289 289 288 288 287 287 287 287 287 287 288 288 287 285 285 286 285 285 285 285 285 285 285 285 285 281 280 281 283 285 286 286 286 286 286 285 285 284 282 279 277
260 262 263 264 265 265 266 267 267 268 269 271 280 289 290 291 290 290 291 291 291 291 292 292 292 292 291 291 291 290 291 291 290 289 289 288 288 288 288 287 287 288 288 288 288 287 286 286 285 285 285 284 285 284 284 286 285 285 282 280 279 281 281 283 285 285 286 286 286 286 286 286 286 284
260 261 263 264 265 265 266 266 266 267 268 269 271 276 286 289 290 290 290 290 291 291 291 291 291 291 291 291 290 290 290 290 290 289 289 288 288 288 288 288 287 287 287 288 288 287 285 285 285 286 285 285 285 285 285 285 285 283 278 278 279 280 281 282 282 281 282 282 285 286 285 285 285 285
Wind_Speed
9 8 9 9 10 11 11 15 20 21 18 18 20 20 21 20 19 14 16 16 12 9 12 13 5 11 14 13 12 15 13 17 19 14 14 16 15 20 23 23 22 22 21 19 20 20 19 20 20 18 17 17 18 17 19 21 21 19 18 16 17 18 18 17 16 16 15 17 17 18 17 18 19 17
8 9 9 9 9 10 11 15 22 20 18 18 20 19 18 19 22 17 19 15 12 14 9 10 11 6 12 12 12 13 13 18 21 15 14 14 16 24 24 23 24 23 22 20 19 19 18 18 16 16 18 19 21 19 20 18 16 16 17 16 16 18 19 19 17 15 15 18 18 17 17 17 18 17
8 10 11 9 10 9 11 14 21 17 14 17 18 18 19 18 20 20 17 14 5 12 15 7 9 16 12 12 12 12 11 16 19 16 14 14 19 24 21 24 24 23 23 21 21 19 18 17 15 16 18 21 21 19 19 19 17 17 18 18 17 18 19 19 18 16 16 17 18 18 17 18 18 19
8 10 12 11 10 9 9 13 19 15 14 16 18 17 15 17 17 18 18 18 15 11 14 13 12 15 14 12 14 12 12 15 20 14 14 15 19 17 15 22 22 24 23 23 21 19 18 17 17 16 16 18 19 19 18 17 17 19 19 19 18 18 18 18 18 18 18 18 19 20 19 19 18 18
10 10 12 12 11 9 10 13 16 15 15 16 16 18 17 14 13 16 17 18 14 6 3 12 15 14 16 11 13 15 12 13 12 15 14 15 14 16 15 17 24 24 23 22 21 20 19 17 19 16 15 15 16 18 18 17 18 18 19 19 19 18 18 19 19 19 19 19 19 19 19 19 18 17
9 10 11 13 11 10 11 15 18 16 14 16 16 17 19 18 16 15 16 15 18 13 8 9 11 13 19 16 10 16 16 16 11 15 14 12 12 14 14 14 15 25 22 22 21 19 20 18 17 16 15 14 15 17 19 19 18 19 20 19 19 19 20 20 20 19 18 18 18 19 19 18 18 17
9 11 11 11 10 9 11 14 16 17 14 15 17 19 18 19 17 14 15 17 16 19 12 14 15 14 13 16 15 15 15 16 14 16 14 13 12 11 12 13 11 20 22 23 21 17 20 18 16 15 15 15 16 17 18 20 20 20 20 20 20 21 20 20 19 19 18 18 18 19 18 17 18 18
9 10 11 11 11 10 12 14 15 15 13 14 16 18 16 16 15 14 15 19 18 16 16 11 16 15 16 9 9 12 15 15 10 13 11 9 12 10 11 12 10 16 23 22 20 18 18 19 17 15 15 16 16 17 18 20 21 21 21 21 22 21 21 20 20 20 19 18 19 19 18 18 18 19
9 10 10 11 11 10 12 14 14 15 15 14 14 15 14 14 13 13 15 16 18 18 19 14 11 14 12 10 13 12 15 11 7 5 8 11 13 11 10 11 11 18 23 23 22 16 16 17 17 17 16 17 18 17 18 20 20 22 22 22 22 22 21 21 20 20 20 19 19 19 18 18 19 20
8 9 10 10 10 10 12 14 14 15 15 15 14 16 14 13 13 14 14 15 16 20 19 18 12 10 13 10 10 11 15 16 13 8 5 4 5 8 8 8 9 12 13 13 15 16 15 16 17 17 17 17 18 19 18 20 21 21 22 22 22 23 22 22 21 21 20 19 18 18 18 19 20 21
9 9 9 9 10 11 11 13 15 16 13 13 16 17 16 15 15 15 15 16 16 15 16 16 19 15 12 17 14 9 13 18 18 18 13 10 6 7 13 10 4 7 9 10 14 14 12 13 12 15 18 19 20 20 19 20 21 22 22 22 23 23 23 22 22 22 21 20 19 18 18 18 20 21
9 9 9 9 9 11 12 12 13 16 14 10 14 15 15 17 18 16 15 16 16 15 15 15 15 16 15 6 8 11 12 12 9 12 15 18 15 10 10 11 10 5 11 8 6 9 13 14 16 18 18 21 21 21 20 21 21 22 22 22 23 23 23 23 22 22 21 20 19 19 18 18 20 21
9 8 9 9 9 10 15 19 17 18 17 13 11 14 15 16 18 17 15 16 16 16 16 14 14 14 14 14 13 14 14 18 18 16 15 12 10 9 7 3 5 11 11 7 8 8 9 9 8 9 8 10 16 18 20 18 23 23 23 23 23 23 23 23 23 23 22 21 21 20 19 18 20 20
9 9 8 9 13 16 18 19 19 18 20 23 15 13 17 18 18 18 18 17 17 17 17 15 15 16 15 16 18 19 20 17 13 14 16 15 11 10 6 5 1 3 11 12 10 6 6 11 10 10 12 11 13 11 13 12 14 20 24 24 24 24 23 23 23 23 23 22 21 21 20 19 20 20
9 8 8 9 11 13 15 14 17 17 19 26 25 21 21 21 22 20 20 19 19 19 19 17 17 18 20 19 19 19 17 14 19 19 17 17 16 17 17 16 3 3 10 10 10 8 5 8 12 9 9 10 9 10 13 18 21 23 23 24 24 24 24 24 23 23 23 23 22 21 21 20 20 20
9 9 9 9 9 10 12 12 14 16 17 24 26 24 24 24 26 27 24 21 19 20 19 19 20 20 21 19 18 16 16 17 16 16 15 17 20 18 18 15 15 9 10 13 11 9 3 3 9 10 10 9 11 12 15 21 22 22 23 24 24 24 24 23 23 23 23 23 22 22 21 21 21 20
11 9 9 10 10 11 15 13 13 13 11 19 25 26 26 28 28 28 30 28 23 19 21 22 20 20 19 20 19 20 20 18 19 17 17 16 17 17 17 15 11 10 11 12 11 12 8 7 8 10 8 9 9 10 14 19 21 21 23 23 24 24 23 23 23 23 23 22 22 22 22 22 21 21
12 12 10 10 10 10 10 10 13 13 11 12 17 19 18 19 25 28 30 30 29 24 20 21 21 17 18 21 20 17 18 21 21 20 20 18 17 18 18 13 12 11 12 15 11 7 8 7 10 12 8 5 7 8 12 19 20 22 23 23 23 23 23 23 23 23 23 22 22 22 22 22 22 22
14 13 12 11 11 10 11 11 12 13 11 11 13 18 18 18 19 20 21 22 21 21 20 23 25 23 21 21 20 18 18 24 22 22 22 21 17 9 10 10 7 9 8 9 13 15 11 6 9 9 7 6 6 4 7 16 19 21 22 22 22 23 23 23 23 23 22 22 22 22 22 22 22 22
14 13 12 11 11 11 12 14 17 16 13 10 13 16 18 17 17 18 20 24 24 23 21 21 21 21 23 23 25 24 22 19 16 12 11 11 11 13 14 12 9 12 8 4 9 7 9 9 11 7 5 6 7 5 5 10 16 17 19 21 22 23 23 23 22 23 22 22 22 22 22 22 22 22
14 13 12 12 11 11 11 14 18 18 19 11 14 16 18 17 17 17 16 22 25 24 24 25 27 27 27 27 27 29 32 23 19 18 18 16 16 16 15 10 11 12 11 8 6 7 11 9 8 7 5 7 6 6 6 6 13 17 18 20 22 22 22 23 23 23 22 22 23 22 22 22 21 21
13 14 19 15 12 12 12 16 18 19 15 13 15 16 18 17 18 16 14 13 15 25 25 26 26 28 29 31 31 29 26 26 23 23 24 22 18 17 17 18 15 12 11 11 9 9 9 10 7 8 4 3 1 6 6 7 8 13 14 18 20 21 22 23 23 23 23 23 23 23 23 22 20 15
12 11 13 19 16 13 13 16 17 19 16 14 16 16 17 19 20 18 17 18 16 12 10 11 15 17 23 23 22 22 29 28 25 23 23 20 20 19 16 14 12 9 11 12 12 13 8 13 10 11 8 6 1 2 5 6 7 8 9 11 14 20 22 23 23 23 23 23 23 23 23 22 20 11
10 11 10 13 17 18 17 18 20 20 20 16 14 16 17 19 22 17 17 17 17 16 14 14 15 17 16 16 17 19 21 22 23 18 19 22 21 20 17 16 18 19 14 11 12 10 7 12 11 9 11 12 8 6 6 7 7 8 8 9 9 15 19 20 19 24 23 23 24 24 24 23 21 12
11 10 10 10 12 18 19 22 22 22 22 20 15 18 20 21 20 17 15 18 22 16 14 13 13 13 13 14 15 17 19 18 18 15 16 20 20 20 19 18 17 12 10 16 20 12 11 13 13 11 7 1 2 8 7 6 5 6 7 9 10 10 10 10 8 12 18 24 24 25 24 25 26 18
11 11 10 9 12 18 20 21 22 23 22 23 16 19 24 22 21 19 17 16 14 14 15 15 14 13 14 14 14 16 17 17 17 16 15 16 17 18 21 22 19 14 11 17 27 16 13 12 16 16 11 8 3 8 9 8 9 9 7 7 9 9 10 10 9 9 9 10 13 18 20 26 26 26
12 10 10 10 13 16 17 19 21 21 23 21 18 23 21 21 27 22 14 15 16 14 15 15 15 15 16 16 16 17 16 16 17 15 13 14 13 10 11 18 19 16 13 17 21 17 16 14 14 17 16 11 9 8 11 12 8 9 8 10 10 10 11 11 12 11 10 11 10 16 19 21 22 22
11 10 10 10 14 16 17 19 20 21 21 17 24 22 22 25 24 16 15 14 15 14 13 14 16 16 16 17 16 17 16 16 16 15 13 13 12 10 9 11 13 13 18 21 22 18 16 15 16 18 21 19 16 16 14 9 7 14 16 11 10 10 10 10 11 10 10 10 9 11 11 12 14 17
11 13 15 14 15 15 16 19 20 19 23 27 25 24 25 23 15 15 16 17 16 16 17 18 18 18 19 19 18 16 15 13 12 9 8 9 11 9 9 10 9 8 10 15 20 20 17 15 17 15 13 15 17 15 14 16 15 14 15 16 13 13 12 12 13 14 13 13 14 14 15 16 16 17
18 18 17 17 17 16 16 14 11 10 14 24 27 25 25 16 15 15 15 16 17 18 18 19 19 19 16 13 11 13 14 14 16 16 15 13 11 9 9 9 6 3 6 13 17 19 17 15 15 17 17 15 15 15 14 13 12 13 14 16 14 6 9 12 13 11 12 13 14 14 15 15 15 13
14 16 16 12 14 13 16 16 16 16 17 18 20 17 16 14 15 16 17 18 19 19 18 17 16 12 12 11 12 12 14 15 15 15 15 14 14 12 10 12 10 6 5 8 12 13 13 12 11 15 16 14 12 13 14 13 15 14 15 15 15 18 17 16 15 16 16 15 13 13 11 11 12 13
11 12 11 13 10 10 10 11 10 11 11 12 14 14 14 14 15 18 22 21 17 16 15 14 11 10 12 13 15 15 16 16 15 14 14 15 14 13 12 11 13 10 7 8 10 12 13 12 12 14 15 16 18 13 10 13 15 16 15 16 17 14 9 19 19 16 15 13 12 13 14 14 14 14
8 8 9 8 10 10 11 11 11 9 9 10 13 14 14 14 14 15 14 14 14 15 13 12 13 14 15 15 15 15 15 14 14 15 14 13 14 13 13 16 14 12 11 10 9 10 10 7 3 9 12 9 9 12 15 14 12 12 14 16 15 14 12 14 15 17 15 13 15 14 13 15 15 16
9 8 9 10 10 10 10 11 11 9 9 11 12 13 15 14 13 14 15 16 16 14 14 15 16 16 16 16 15 15 15 13 12 14 16 15 15 16 16 16 13 12 12 11 11 12 12 10 5 4 4 4 0 7 12 14 15 13 13 12 14 16 12 11 13 15 18 19 18 15 15 16 15 15
10 9 10 10 10 10 11 11 10 9 9 11 12 13 14 13 16 17 16 16 15 15 15 15 16 15 17 17 17 17 16 16 14 13 12 12 14 16 17 16 14 12 12 12 11 10 11 11 9 7 4 3 5 9 8 8 10 13 11 13 14 15 13 12 13 14 17 14 13 18 19 16 16 17
9 9 10 10 10 11 11 12 9 9 10 11 14 15 15 16 16 17 17 15 15 15 15 15 15 15 17 18 18 17 16 16 15 15 15 14 16 14 14 15 16 14 13 13 13 12 13 14 14 14 14 12 12 13 16 19 16 11 15 14 12 13 12 11 12 13 14 15 16 16 16 19 20 16
10 10 10 10 10 11 12 11 10 10 11 12 13 14 15 16 15 15 15 15 15 14 15 15 15 15 15 15 16 16 16 16 16 16 17 16 14 14 14 14 13 14 14 13 12 12 12 14 15 15 16 14 15 19 19 5 17 17 12 13 11 12 12 11 11 12 14 15 15 16 19 17 15 14
8 9 9 10 10 11 10 9 9 9 10 11 12 13 14 15 13 13 11 12 14 14 15 15 14 14 14 14 14 15 15 16 16 16 16 15 15 16 16 16 15 13 13 11 13 14 14 14 16 17 16 19 19 19 14 3 6 14 18 14 13 12 12 13 14 16 17 15 18 18 12 11 14 9
11 10 7 8 10 9 9 10 10 9 10 11 11 12 12 11 12 13 13 15 15 14 14 15 14 15 16 15 15 16 17 16 16 16 17 17 18 18 15 14 14 12 12 12 12 13 13 15 17 19 19 19 21 16 10 10 10 5 11 17 14 14 15 17 18 15 12 13 14 8 8 9 3 3
11 9 9 10 10 7 7 9 9 9 10 10 11 11 11 11 11 13 15 16 16 15 15 15 16 15 14 15 15 14 15 20 21 18 18 17 16 16 15 15 15 15 13 13 13 14 16 19 19 19 18 13 4 8 9 8 4 5 10 16 25 23 19 16 15 15 14 12 9 9 13 10 12 6
12 11 11 9 8 9 10 7 6 8 9 9 10 9 10 11 12 13 13 14 14 15 15 15 15 16 16 16 16 16 16 16 16 17 17 17 17 16 17 16 14 14 16 16 17 17 19 20 15 11 8 6 6 7 8 7 9 11 14 15 21 24 20 19 17 15 15 14 13 15 14 14 15 10
8 9 11 11 11 10 9 9 11 9 3 7 8 9 10 11 12 16 16 16 15 15 14 14 14 14 14 15 15 16 17 17 16 16 16 16 16 16 18 16 15 15 17 18 19 18 11 7 10 13 13 10 7 9 15 15 16 12 9 8 10 19 23 22 23 18 14 13 15 13 11 7 6 10
12 10 12 12 10 11 10 10 10 9 10 6 4 8 9 11 10 12 11 12 13 14 14 14 14 14 14 14 14 15 15 16 15 16 15 15 16 16 16 17 18 18 18 16 11 9 10 13 12 12 11 13 15 16 19 18 14 10 8 9 11 12 14 18 21 21 18 18 22 20 17 16 12 12
14 15 12 13 13 13 13 13 11 11 10 9 9 4 10 10 11 12 13 14 14 14 14 14 14 15 15 15 15 14 15 16 16 16 15 15 15 16 16 17 16 14 13 12 10 11 11 11 13 14 15 16 16 16 18 16 12 10 9 8 6 10 13 13 11 12 14 17 20 19 16 14 15 2
14 13 13 13 13 13 13 12 12 12 11 11 10 10 5 3 8 10 11 12 13 13 14 13 13 13 14 14 15 16 15 15 15 15 15 14 14 14 13 14 13 13 13 12 12 11 10 11 12 14 15 16 15 16 17 13 9 6 7 8 10 10 10 10 13 14 13 12 12 15 16 16 15 11
Wind_Direction
231 239 248 253 262 267 266 268 269 235 196 178 170 170 169 164 154 164 164 173 157 189 177 159 215 179 166 162 164 159 162 163 163 167 164 163 167 169 168 170 172 173 174 175 172 171 172 174 177 174 171 169 169 173 171 175 179 172 164 160 157 157 152 150 152 159 160 156 154 156 159 162 163 162
241 246 249 250 260 266 271 272 274 240 199 177 172 171 170 165 160 164 167 170 171 162 192 172 155 198 168 161 160 163 162 164 165 166 164 165 168 169 170 172 173 172 174 175 172 172 176 173 172 172 170 167 172 174 172 171 171 165 160 159 156 151 150 149 152 153 151 153 152 154 157 156 154 159
239 245 252 253 260 267 277 278 274 238 207 177 170 173 164 174 165 163 160 154 192 166 165 171 168 162 167 159 157 161 158 166 168 164 164 167 168 168 170 172 173 171 174 174 174 174 173 172 172 171 168 168 173 169 167 169 168 162 160 159 155 150 151 152 156 159 154 154 151 150 151 149 151 162
245 246 253 252 255 267 279 279 278 239 206 183 172 167 170 171 170 162 159 161 162 183 166 153 158 158 149 155 158 159 159 169 173 162 163 166 166 166 172 171 175 170 173 172 174 171 173 170 172 177 161 159 167 168 163 164 161 160 159 160 157 153 151 150 153 156 149 147 146 145 145 147 155 162
247 249 254 256 256 261 272 279 280 254 203 188 179 167 167 177 170 167 163 159 146 130 122 145 154 158 143 154 165 155 157 165 178 168 162 165 170 170 171 172 177 171 170 168 168 173 172 173 172 175 159 154 162 166 163 162 159 158 157 158 155 152 148 148 148 145 144 144 143 142 144 150 160 162
258 255 250 251 256 256 263 274 278 260 213 187 180 173 166 175 177 177 163 153 148 145 133 145 142 153 159 152 175 158 161 169 174 171 166 166 167 174 163 168 178 171 168 167 163 169 171 174 170 169 160 154 158 166 164 162 159 156 155 153 150 149 149 149 148 145 143 144 145 146 149 157 162 158
264 266 266 265 260 255 260 270 274 264 222 190 180 174 171 173 172 167 155 144 150 148 151 152 152 158 166 158 169 167 168 168 170 167 169 168 168 167 162 167 169 173 166 167 164 170 170 167 165 168 162 157 160 164 165 161 158 156 153 150 149 149 149 149 148 147 144 144 146 149 154 159 157 153
257 264 271 272 269 263 261 266 272 263 225 197 182 174 171 166 161 153 150 154 148 151 142 168 159 164 158 156 154 157 158 158 165 171 164 164 166 161 163 165 164 175 171 166 164 172 169 162 164 168 168 161 161 163 163 161 158 156 154 152 150 149 148 148 149 148 147 147 151 155 158 159 154 152
249 259 263 269 269 265 262 264 268 262 221 204 184 175 166 159 150 147 152 155 148 148 152 157 166 159 152 140 149 153 150 156 137 115 154 176 172 163 168 167 167 170 173 171 169 169 165 163 164 168 172 168 163 164 164 162 158 156 155 154 152 150 149 150 150 149 149 150 154 158 162 161 156 155
245 253 258 264 264 261 259 262 265 256 223 199 184 172 165 151 144 146 149 149 156 153 156 151 148 162 141 127 148 172 157 156 154 140 119 128 147 148 148 182 178 171 172 173 172 168 163 163 167 170 173 172 167 165 166 163 160 157 156 155 154 153 153 153 153 151 151 153 157 162 166 162 160 160
246 250 260 268 271 267 262 263 264 257 224 206 182 174 163 153 148 149 150 152 153 152 149 154 155 158 169 155 154 177 167 163 168 161 153 165 181 161 165 169 163 152 150 166 166 160 157 163 167 175 176 175 171 168 169 166 162 159 158 157 156 156 156 156 156 155 155 157 160 165 168 164 163 164
244 251 257 265 271 272 270 265 267 261 221 209 188 175 159 156 152 149 152 152 150 148 152 155 162 159 155 157 137 145 150 153 169 171 167 173 175 171 182 168 153 153 147 148 146 164 159 167 172 176 181 179 174 170 169 168 164 161 160 159 159 158 158 158 158 158 159 161 165 169 170 167 167 168
244 247 254 260 266 272 277 279 277 277 237 202 194 174 159 160 154 151 154 153 152 154 154 158 158 158 158 155 146 154 163 172 174 176 171 174 166 146 143 131 167 157 151 145 142 161 163 153 165 164 171 185 174 170 169 173 169 166 163 162 162 161 161 161 160 161 163 165 168 170 172 169 168 170
240 244 252 260 266 274 278 280 281 277 251 202 189 176 163 161 156 156 156 157 156 153 154 158 159 158 167 164 170 171 181 174 150 159 162 162 158 146 142 109 275 191 148 148 160 174 176 157 166 168 176 184 178 175 172 172 172 170 167 166 164 162 162 163 164 165 166 167 169 171 172 170 169 171
246 245 248 259 270 276 281 286 286 277 259 210 184 180 168 165 162 159 160 162 160 159 160 163 165 170 173 178 174 177 165 156 162 171 171 163 161 167 165 176 197 243 159 150 146 163 202 164 162 178 178 173 179 174 179 176 177 174 169 166 164 164 165 166 167 167 167 168 170 171 172 171 171 174
249 250 254 258 266 269 276 289 293 284 256 220 185 177 171 170 167 163 163 164 165 163 159 164 175 171 177 175 174 170 165 168 164 164 164 167 170 175 180 174 177 181 170 148 153 164 188 191 164 172 187 177 177 182 181 179 177 174 170 168 167 167 167 168 168 169 169 170 170 171 172 172 173 176
253 247 249 258 260 269 279 285 285 282 258 221 187 174 174 172 170 170 169 167 168 168 163 170 174 176 170 170 180 174 172 161 160 164 169 173 176 175 178 176 157 154 177 152 156 169 183 162 167 179 187 181 177 180 182 177 177 175 172 170 170 169 169 169 170 171 172 172 172 172 173 174 175 178
247 240 239 248 260 267 274 278 285 286 252 221 190 174 174 175 177 175 172 170 165 162 166 168 173 180 169 175 177 173 157 159 167 170 174 172 176 177 181 165 156 162 168 166 151 149 178 186 171 187 179 163 170 178 180 178 178 176 174 172 171 170 170 171 172 174 174 175 175 175 175 176 177 179
245 238 234 237 248 259 266 268 279 285 259 214 196 175 175 177 178 178 178 174 170 172 173 174 175 172 176 174 165 162 172 172 172 173 171 170 168 137 80 65 100 153 195 166 152 180 177 166 173 184 153 162 160 158 180 180 180 179 175 172 171 171 173 173 174 174 176 177 178 179 179 179 179 180
243 236 229 232 238 247 258 270 274 275 261 216 192 180 175 177 179 183 183 178 177 177 176 177 173 173 174 169 167 171 173 173 162 139 110 100 109 131 147 148 150 169 196 199 169 128 163 178 177 152 134 139 157 161 165 185 182 180 177 174 173 174 174 175 175 176 178 179 181 181 182 181 180 180
244 233 227 226 233 240 251 259 267 273 263 216 198 185 177 175 178 187 184 182 180 179 176 175 172 168 163 166 174 173 168 161 148 137 142 158 160 160 156 151 155 182 178 198 174 141 157 174 168 129 150 163 156 166 175 178 185 183 180 179 176 175 176 176 177 178 179 182 184 184 184 182 181 179
241 232 225 223 226 233 239 251 256 265 259 221 198 189 177 178 182 184 176 177 188 183 178 174 170 165 165 166 168 169 166 156 153 157 167 169 163 169 168 167 178 168 180 186 154 136 172 152 147 123 108 103 186 176 175 174 182 184 184 184 181 179 178 178 180 180 183 184 185 186 185 183 179 176
238 231 225 221 222 225 236 240 249 256 253 223 197 189 180 181 185 184 172 174 177 182 170 164 160 163 164 162 162 166 164 163 171 176 168 157 162 170 174 159 140 147 205 193 167 159 151 159 175 146 126 174 222 179 175 174 181 182 179 186 189 187 182 183 183 184 184 185 186 187 186 184 177 178
235 229 225 226 221 225 228 236 243 250 247 224 202 186 186 184 189 177 171 173 170 170 169 165 166 166 165 160 160 162 167 172 179 180 164 165 171 169 163 165 172 181 184 170 176 156 142 162 163 188 175 153 180 188 166 185 193 189 180 181 184 193 191 188 187 187 185 186 188 188 188 184 179 180
242 232 229 228 220 222 228 236 241 241 243 224 206 193 189 192 180 157 164 168 164 163 160 158 161 161 161 163 164 168 173 178 181 177 175 178 175 168 167 172 182 180 157 168 171 147 159 173 172 170 203 197 97 130 182 171 189 194 183 182 181 188 186 191 186 192 192 190 190 190 191 188 187 187
240 236 232 233 224 225 228 234 237 235 235 222 209 204 195 179 151 161 165 158 161 162 161 161 161 162 165 167 172 175 178 180 180 182 182 185 183 177 172 173 174 170 173 173 170 171 149 173 174 174 181 153 157 153 141 187 187 187 181 193 191 184 180 181 187 190 190 193 197 195 195 194 195 194
239 237 236 233 230 227 231 234 235 230 226 218 212 207 187 160 164 164 156 158 159 163 164 162 163 168 172 174 178 180 182 182 180 180 178 182 184 182 181 175 172 172 157 165 181 176 167 172 170 172 175 176 145 163 174 169 185 184 191 194 190 186 186 181 186 186 189 193 197 200 200 201 199 197
236 236 233 230 228 231 235 238 236 230 220 214 210 201 183 170 166 155 153 157 158 156 159 167 167 175 180 180 179 183 181 177 179 176 171 176 178 174 172 181 180 167 156 167 182 187 178 167 178 186 173 171 174 175 185 191 162 175 190 187 191 193 189 186 185 187 189 188 188 196 194 198 201 201
235 235 234 231 233 239 243 244 241 231 220 210 203 195 183 170 159 162 159 163 159 164 170 174 177 181 184 183 183 174 167 162 158 158 164 173 178 172 166 173 174 154 164 176 177 182 182 176 179 179 183 186 182 185 169 179 178 185 182 172 195 198 189 190 190 193 191 190 195 194 198 198 201 202
236 239 241 240 241 243 245 245 239 229 220 209 198 189 183 168 168 163 165 163 166 173 178 180 181 185 179 172 158 153 155 160 173 176 173 169 174 164 156 154 162 105 162 175 182 184 185 181 175 176 184 190 191 176 181 161 179 183 180 190 192 147 201 194 197 193 187 196 199 200 206 204 205 195
246 246 243 240 240 241 243 244 237 225 213 204 194 186 178 175 172 170 169 172 176 179 180 181 182 171 159 141 140 159 166 177 180 174 168 170 173 170 171 170 167 144 167 176 184 188 186 176 168 177 182 190 193 192 182 176 177 172 189 191 166 187 193 187 192 193 195 196 197 204 205 208 209 205
242 240 242 243 243 245 251 253 250 227 207 192 188 181 176 177 174 175 178 177 177 177 179 174 158 139 146 155 166 170 179 183 175 173 172 174 169 172 164 172 184 172 151 174 183 193 193 183 174 184 191 181 188 192 174 186 186 183 183 186 193 198 149 186 193 198 191 182 192 202 204 204 207 206
246 233 233 227 228 228 236 243 236 217 194 185 180 175 178 177 174 174 172 175 179 176 169 162 156 160 163 170 170 172 178 181 176 175 176 174 167 171 177 186 181 166 168 174 180 181 187 185 154 183 192 201 207 183 175 190 200 182 183 187 192 193 189 194 189 187 172 183 202 199 203 210 211 209
263 233 222 219 219 223 226 228 226 207 186 176 175 179 177 174 172 174 178 182 181 173 168 166 171 170 167 166 170 175 180 178 178 178 176 174 173 171 185 190 185 177 176 168 170 178 179 176 130 126 171 208 233 207 202 196 190 182 188 181 187 197 193 175 192 183 182 192 189 191 212 215 214 212
243 242 224 221 216 222 222 222 219 197 185 174 172 176 178 178 179 181 185 185 176 172 173 174 174 170 170 170 173 177 179 175 174 177 181 173 176 184 184 185 184 174 175 172 174 172 167 168 152 134 124 197 243 264 238 214 193 191 178 187 189 191 184 182 183 187 192 197 189 202 210 210 212 212
242 231 226 221 221 215 217 218 207 193 184 183 180 177 180 186 186 184 186 180 175 176 175 175 174 175 178 174 175 177 175 173 171 173 179 183 185 186 184 187 183 179 177 179 176 170 171 174 172 176 183 189 202 220 236 213 196 187 182 191 190 187 187 173 181 187 192 198 201 204 206 211 215 207
237 225 222 224 222 214 215 214 204 190 188 185 187 183 185 187 188 188 184 171 177 178 179 176 177 178 180 178 175 172 169 170 174 178 183 184 182 179 181 191 189 182 177 179 167 170 171 176 182 182 185 191 201 214 220 145 199 205 182 182 174 184 172 169 170 191 203 200 202 206 213 213 217 210
244 224 225 230 223 216 214 214 204 193 190 188 185 189 190 187 183 181 167 171 181 182 180 181 179 177 177 175 174 173 172 178 177 178 183 181 179 186 188 185 185 183 180 165 167 176 179 179 183 189 187 194 203 213 211 168 189 209 201 177 173 173 173 170 186 197 201 199 207 211 211 223 228 221
358 343 299 247 224 220 217 211 202 198 189 186 189 190 188 182 174 170 172 181 187 184 183 183 183 179 176 177 178 177 175 175 179 183 184 187 189 187 185 181 181 181 169 168 171 176 181 190 191 194 194 196 205 207 191 173 208 182 183 184 168 164 182 187 197 200 191 197 212 206 221 235 32 47
358 2 2 350 343 309 239 208 210 203 191 190 192 190 182 179 174 176 180 186 184 186 185 187 182 178 180 178 178 181 184 180 182 185 185 188 190 187 183 183 182 176 176 175 174 183 192 199 196 195 200 196 131 111 133 144 107 134 183 204 185 180 190 185 191 186 198 198 167 178 214 204 222 217
0 4 5 354 346 353 345 315 242 205 197 194 189 184 180 177 178 183 188 185 184 185 188 187 183 181 182 180 180 178 183 191 190 185 184 186 186 186 185 180 181 179 183 187 188 191 200 205 195 172 150 120 147 99 84 129 189 196 196 200 202 198 193 190 195 186 194 177 170 191 202 202 212 204
327 357 4 7 8 1 354 350 349 333 264 192 183 179 178 181 187 184 185 184 184 188 188 186 184 184 185 184 182 183 186 186 187 188 186 185 183 185 183 180 185 186 192 196 193 200 190 113 125 156 177 166 150 186 211 210 217 205 184 185 196 209 206 198 205 201 192 169 176 193 198 195 176 212
354 2 5 2 360 3 6 5 358 354 344 326 212 180 180 184 183 183 180 182 186 187 190 186 185 184 186 184 186 186 187 188 188 187 183 184 183 181 184 191 195 193 196 201 189 153 136 161 167 162 168 182 197 201 215 216 215 198 153 178 190 195 209 212 206 205 202 195 196 197 186 182 156 209
4 6 4 7 9 9 9 7 3 2 355 351 328 254 187 182 184 182 185 186 188 190 190 189 186 186 186 183 183 186 191 191 186 183 184 185 186 186 188 193 194 194 196 195 175 169 167 166 168 172 179 196 202 205 220 217 205 196 183 173 148 171 196 202 208 213 219 219 215 217 217 215 223 78
358 0 3 6 9 13 12 8 9 7 4 3 357 346 333 199 189 187 188 187 188 188 188 189 187 187 186 184 183 189 193 191 186 188 183 182 184 186 189 189 190 194 197 190 179 178 170 169 174 181 192 204 202 208 219 212 200 171 168 164 176 184 180 173 187 201 207 221 220 216 227 230 237 252